Roseburg, OR

3:11 AM PDT on August 18, 2017 (GMT -0700)
Roseburg Regional

Weather History for KRBG - March, 2013

Change the Weather History Date:

Wednesday, March 20, 2013

  Actual Average Record
Temperature  
Mean Temperature 48 °F 49 °F  
Max Temperature 57 °F 58 °F 80 °F (1960)
Min Temperature 38 °F 40 °F 20 °F (1955)
Degree Days  
Heating Degree Days 17 16  
Month to date heating degree days 297 339  
Since 1 July heating degree days 3007 3208  
Cooling Degree Days 0 0  
Month to date cooling degree days 0 0  
Year to date cooling degree days 0 0  
Moisture  
Dew Point 42 °F    
Average Humidity 76    
Maximum Humidity 92    
Minimum Humidity 59    
Precipitation  
Precipitation 0.21 in 0.12 in 0.99 in (1995)
Month to date precipitation 1.35 2.11  
Year to date precipitation 4.50 11.15  
Sea Level Pressure  
Sea Level Pressure 29.94 in    
Wind  
Wind Speed 5 mph (SW)    
Max Wind Speed 17 mph    
Max Gust Speed 30 mph    
Visibility 9 miles    
Events Rain    
T = Trace of Precipitation, MM = Missing Value Source: NWS Daily Summary

Daily Weather History Graph

Daily Weather History Graph

Search for Another Location

Airport or City:

Trip Planner

Search our weather history database for the weather conditions in past years. The results will help you decide how hot, cold, wet, or windy it might be!

Date:

Astronomy

Mar. 20, 2013 Rise Set
Actual Time 7:16 AM PDT 7:26 PM PDT
Civil Twilight 6:47 AM PDT 7:54 PM PDT
Nautical Twilight 6:14 AM PDT 8:28 PM PDT
Astronomical Twilight 5:40 AM PDT 9:02 PM PDT
Moon 12:57 PM PDT (3/20) 3:08 AM PDT (3/20)
Length of Visible Light 13h 07m
Length of Day
12h 10m
First Quarter, 60% of the Moon is Illuminated
Mar 20
First Quarter
Mar 27
Full
Apr 2
Last Quarter
Apr 10
New
Apr 18
First Quarter

Hourly Weather History & Observations

Time (PDT) Temp. Windchill Dew Point Humidity Pressure Visibility Wind Dir Wind Speed Gust Speed Precip Events Conditions
12:53 AM 57.0 °F - 46.9 °F 69% 29.73 in 10.0 mi Variable 6.9 mph - 0.01 in Rain Light Rain
1:53 AM 57.0 °F - 46.9 °F 69% 29.73 in 10.0 mi SSW 3.5 mph - 0.00 in   Overcast
2:53 AM 55.0 °F - 48.0 °F 77% 29.71 in 10.0 mi Calm Calm - 0.00 in   Overcast
3:53 AM 54.0 °F - 48.0 °F 80% 29.70 in 10.0 mi SSE 4.6 mph - N/A   Overcast
4:53 AM 57.0 °F - 46.9 °F 69% 29.69 in 10.0 mi South 6.9 mph - N/A   Overcast
5:53 AM 57.0 °F - 46.0 °F 67% 29.70 in 10.0 mi South 5.8 mph - 0.00 in   Overcast
6:53 AM 55.9 °F - 46.0 °F 69% 29.70 in 10.0 mi South 4.6 mph - 0.00 in Rain Light Rain
7:53 AM 55.0 °F - 46.9 °F 74% 29.72 in 10.0 mi South 8.1 mph - 0.02 in Rain Light Rain
8:53 AM 53.1 °F - 48.0 °F 83% 29.75 in 4.0 mi Variable 3.5 mph - 0.03 in Rain Rain
9:15 AM 51.8 °F - 48.2 °F 88% 29.78 in 1.8 mi WSW 11.5 mph 17.3 mph 0.04 in Rain Rain
9:23 AM 51.8 °F - 48.2 °F 88% 29.79 in 3.0 mi WSW 6.9 mph 17.3 mph 0.05 in Rain Light Rain
9:53 AM 51.1 °F - 45.0 °F 80% 29.82 in 10.0 mi SW 8.1 mph - 0.07 in Rain Light Rain
10:53 AM 51.1 °F - 43.0 °F 74% 29.87 in 10.0 mi SW 6.9 mph - 0.00 in   Overcast
11:53 AM 54.0 °F - 42.1 °F 64% 29.91 in 10.0 mi WSW 9.2 mph - N/A   Overcast
12:53 PM 53.1 °F - 39.9 °F 61% 29.95 in 10.0 mi WSW 11.5 mph 23.0 mph N/A   Mostly Cloudy
1:53 PM 51.1 °F - 39.0 °F 63% 29.98 in 10.0 mi WNW 12.7 mph 23.0 mph 0.00 in   Overcast
2:02 PM 48.2 °F - 37.4 °F 66% 29.99 in 6.0 mi WNW 10.4 mph 27.6 mph 0.01 in Rain Light Rain
2:53 PM 48.9 °F - 39.9 °F 71% 30.00 in 7.0 mi West 10.4 mph - 0.03 in Rain Light Rain
3:53 PM 50.0 °F - 37.9 °F 63% 30.02 in 10.0 mi SW 5.8 mph - 0.00 in   Mostly Cloudy
4:53 PM 50.0 °F - 37.0 °F 61% 30.04 in 10.0 mi WSW 8.1 mph - 0.00 in   Mostly Cloudy
5:53 PM 46.0 °F 44.8 °F 37.9 °F 73% 30.08 in 10.0 mi Variable 3.5 mph 16.1 mph 0.00 in Rain Light Rain
6:53 PM 44.1 °F 39.5 °F 37.9 °F 79% 30.13 in 5.0 mi West 8.1 mph - 0.03 in Rain Light Rain
7:11 PM 44.6 °F - 37.4 °F 76% 30.13 in 10.0 mi Calm Calm - 0.00 in   Overcast
7:53 PM 44.1 °F - 37.9 °F 79% 30.16 in 10.0 mi Calm Calm - 0.00 in   Mostly Cloudy
8:25 PM 44.6 °F 39.2 °F 39.2 °F 81% 30.18 in 10.0 mi NNW 10.4 mph 16.1 mph N/A   Overcast
8:53 PM 41.0 °F - 37.9 °F 89% 30.20 in 7.0 mi Calm Calm - 0.03 in Rain Light Rain
9:05 PM 41.0 °F - 37.4 °F 87% 30.20 in 10.0 mi Calm Calm - 0.00 in   Mostly Cloudy
9:53 PM 39.9 °F 36.7 °F 37.0 °F 89% 30.24 in 10.0 mi ESE 4.6 mph - 0.00 in   Scattered Clouds
11:53 PM 39.9 °F 36.7 °F 37.0 °F 89% 30.26 in 10.0 mi SSE 4.6 mph - N/A   Overcast